Zurück zum Katalog

ICECUBE-Q

unknownWissenschaftHEO
NORAD 59629·PAYLOAD·🇵🇰 Pakistan

Gestartet May 3, 2024 von Wenchang Space Launch Site

Loading…

Nächste Überflüge (nächste 24 Stunden)

TLE

VeraltetSource: Space-Track

Epoche: May 3, 2024, 16:19 UTC

1 59629U 24082C   24124.68000000 -.00194999  15823-2  00000+0 0  9996
2 59629  23.0390 348.5400 9762994 239.7870   5.9940  0.06350648    05

Verfolge ICECUBE-Q in Echtzeit mit AllMySat

Download on the App Store